Orlando International, FL

12:09 AM EST on November 20, 2017 (GMT -0500)
Orlando International

Weather History for KMCO - September, 2013

Change the Weather History Date:

Tuesday, September 24, 2013

  Actual Average Record
Temperature  
Mean Temperature 80 °F 80 °F  
Max Temperature 84 °F 89 °F 98 °F (1919)
Min Temperature 75 °F 72 °F 60 °F (1916)
Degree Days  
Heating Degree Days 0 0  
Month to date heating degree days 0 0  
Since 1 July heating degree days 0 0  
Cooling Degree Days 15 15  
Month to date cooling degree days 407 394  
Year to date cooling degree days 2898 2787  
Growing Degree Days 28 (Base 50)    
Moisture  
Dew Point 74 °F    
Average Humidity 85    
Maximum Humidity 100    
Minimum Humidity 70    
Precipitation  
Precipitation 0.02 in 0.19 in 1.73 in (1975)
Month to date precipitation 5.66 4.97  
Year to date precipitation 41.25 41.58  
Sea Level Pressure  
Sea Level Pressure 29.92 in    
Wind  
Wind Speed 7 mph (SSW)    
Max Wind Speed 18 mph    
Max Gust Speed 23 mph    
Visibility 10 miles    
Events Rain    
T = Trace of Precipitation, MM = Missing Value Source: NWS Daily Summary

Daily Weather History Graph

Daily Weather History Graph

Search for Another Location

Airport or City:

Trip Planner

Search our weather history database for the weather conditions in past years. The results will help you decide how hot, cold, wet, or windy it might be!

Date:

Astronomy

Sep. 24, 2013 Rise Set
Actual Time 7:14 AM EDT 7:19 PM EDT
Civil Twilight 6:51 AM EDT 7:42 PM EDT
Nautical Twilight 6:23 AM EDT 8:09 PM EDT
Astronomical Twilight 5:56 AM EDT 8:37 PM EDT
Moon 11:00 PM EDT (9/24) 12:03 PM EDT (9/24)
Length of Visible Light 12h 51m
Length of Day
12h 04m
Waning Gibbous, 73% of the Moon is Illuminated
Sep 24
Waning Gibbous
Sep 26
Last Quarter
Oct 4
New
Oct 11
First Quarter
Oct 18
Full

Hourly Weather History & Observations

Time (EDT) Temp. Heat Index Dew Point Humidity Pressure Visibility Wind Dir Wind Speed Gust Speed Precip Events Conditions
12:53 AM 73.9 °F - 73.9 °F 100% 29.98 in 10.0 mi South 3.5 mph - N/A   Mostly Cloudy
1:02 AM 75.2 °F - 73.4 °F 94% 29.98 in 10.0 mi Calm Calm - N/A   Mostly Cloudy
1:17 AM 75.2 °F - 73.4 °F 94% 29.97 in 10.0 mi Calm Calm - N/A   Mostly Cloudy
1:46 AM 75.2 °F - 73.4 °F 94% 29.96 in 10.0 mi SSE 3.5 mph - N/A   Mostly Cloudy
1:53 AM 75.0 °F - 73.9 °F 96% 29.96 in 10.0 mi SSE 6.9 mph - N/A   Mostly Cloudy
2:53 AM 75.9 °F - 75.0 °F 97% 29.94 in 10.0 mi SSE 6.9 mph - N/A   Overcast
3:53 AM 75.9 °F - 75.0 °F 97% 29.94 in 10.0 mi South 3.5 mph - N/A   Overcast
4:29 AM 75.2 °F - 75.2 °F 100% 29.93 in 10.0 mi SSE 4.6 mph - N/A   Overcast
4:53 AM 75.9 °F - 75.0 °F 97% 29.93 in 10.0 mi South 4.6 mph - N/A   Overcast
5:53 AM 75.0 °F - 73.9 °F 96% 29.93 in 10.0 mi SSE 4.6 mph - N/A   Overcast
6:53 AM 75.0 °F - 73.9 °F 96% 29.94 in 10.0 mi South 4.6 mph - 0.00 in Rain Light Rain
7:53 AM 75.9 °F - 75.0 °F 97% 29.95 in 10.0 mi Calm Calm - 0.00 in   Overcast
8:53 AM 75.9 °F - 75.0 °F 97% 29.96 in 10.0 mi South 4.6 mph - 0.00 in   Overcast
9:50 AM 77.0 °F - 75.2 °F 94% 29.95 in 10.0 mi South 5.8 mph - 0.01 in Rain Light Rain
9:53 AM 77.0 °F - 75.9 °F 96% 29.95 in 10.0 mi South 5.8 mph - 0.01 in Rain Light Rain
10:53 AM 78.1 °F - 75.9 °F 93% 29.95 in 10.0 mi South 8.1 mph - 0.00 in   Overcast
11:53 AM 79.0 °F - 75.0 °F 88% 29.94 in 10.0 mi SSW 8.1 mph - N/A   Overcast
12:22 PM 80.6 °F 86.2 °F 75.2 °F 84% 29.94 in 10.0 mi South 8.1 mph - N/A   Overcast
12:53 PM 81.0 °F 86.7 °F 75.0 °F 82% 29.94 in 10.0 mi SSW 11.5 mph - N/A   Overcast
1:08 PM 82.4 °F 88.2 °F 73.4 °F 74% 29.94 in 10.0 mi SSW 11.5 mph - N/A   Mostly Cloudy
1:53 PM 84.0 °F 90.2 °F 73.0 °F 69% 29.90 in 10.0 mi SW 8.1 mph - N/A   Mostly Cloudy
2:53 PM 80.1 °F 84.5 °F 73.9 °F 81% 29.88 in 7.0 mi SW 11.5 mph - 0.00 in Rain Rain
3:53 PM 82.9 °F 88.8 °F 73.0 °F 72% 29.88 in 10.0 mi SSW 10.4 mph - 0.01 in   Overcast
4:53 PM 82.9 °F 88.0 °F 72.0 °F 69% 29.87 in 10.0 mi SSW 15.0 mph - 0.00 in Rain Light Rain
5:53 PM 82.0 °F 87.4 °F 73.0 °F 74% 29.86 in 10.0 mi SSW 11.5 mph - N/A   Mostly Cloudy
6:53 PM 79.0 °F - 72.0 °F 79% 29.87 in 10.0 mi SSW 9.2 mph - N/A   Mostly Cloudy
7:33 PM 78.8 °F - 73.4 °F 83% 29.89 in 10.0 mi SW 9.2 mph - N/A   Mostly Cloudy
7:53 PM 78.1 °F - 73.0 °F 84% 29.90 in 10.0 mi WSW 6.9 mph - N/A   Overcast
8:38 PM 75.2 °F - 73.4 °F 94% 29.90 in 10.0 mi SSW 5.8 mph - 0.00 in Rain Light Rain
8:53 PM 75.9 °F - 73.9 °F 94% 29.90 in 10.0 mi SW 6.9 mph - 0.00 in Rain Light Rain
9:53 PM 75.9 °F - 73.9 °F 94% 29.89 in 10.0 mi West 4.6 mph - 0.00 in   Overcast
10:35 PM 75.2 °F - 73.4 °F 94% 29.87 in 10.0 mi SSW 10.4 mph - N/A   Mostly Cloudy
10:40 PM 75.2 °F - 73.4 °F 94% 29.87 in 10.0 mi SSW 6.9 mph - N/A   Mostly Cloudy
10:53 PM 75.9 °F - 73.9 °F 94% 29.87 in 10.0 mi SSW 8.1 mph - N/A   Mostly Cloudy
11:13 PM 75.2 °F - 73.4 °F 94% 29.86 in 10.0 mi SSW 10.4 mph - N/A   Mostly Cloudy
11:53 PM 75.0 °F - 73.9 °F 96% 29.86 in 10.0 mi SSW 10.4 mph - N/A   Mostly Cloudy